User: anonymous   Login
Location: Unspecified
(0.0000°N, 0.0000°E)
Time: 08:06:47
(UTC+00:00)
Language:

ECAMSAT - Orbit

View from above orbital plane
View from above orbital plane
View from above satellite
View from above satellite

Ground track
Ground track

The orbit data is extracted from the following two-line orbital elements,

1 43019U 98067NG  19345.78653041  .00005971  00000-0  69376-4 0  9990
2 43019  51.6386 166.9844 0004386  59.7606 300.3823 15.63334730203256
Epoch (UTC): 11 December 2019 18:52:36
Eccentricity: 0.0004386
inclination: 51.6386°
perigee height: 375 km
apogee height: 381 km
right ascension of ascending node: 166.9844°
argument of perigee: 59.7606°
revolutions per day: 15.63334730
mean anomaly at epoch: 300.3823°
orbit number at epoch: 20325

The dashed part of the orbit path shows where the satellite is in the earth's shadow,  

DLR